This is the latest recevied weather packets stored in our database for station/object EA5FOG-11. If no packets are shown the sender has not sent any weather packets the latest 10 day(s).
| Time | Temp. | Humidity | Pressure | Rain* | Wind** | Luminosity | Snow |
|---|---|---|---|---|---|---|---|
| 1777653747 | 25.56° C | 51% | 962.1 hPa | - | - | - | - |
| 1777652846 | 27.78° C | 49% | 961.9 hPa | - | - | - | - |
| 1777651945 | 23.89° C | 53% | 962 hPa | - | - | - | - |
| 1777651044 | 22.78° C | 54% | 961.9 hPa | - | - | - | - |
| 1777650143 | 23.89° C | 53% | 961.9 hPa | - | - | - | - |
| 1777649242 | 25° C | 52% | 962.1 hPa | - | - | - | - |
| 1777648342 | 25.56° C | 53% | 962.2 hPa | - | - | - | - |
| 1777647441 | 25° C | 54% | 962.2 hPa | - | - | - | - |
| 1777646540 | 25° C | 54% | 962.2 hPa | - | - | - | - |
| 1777645639 | 23.89° C | 55% | 962.2 hPa | - | - | - | - |
| 1777644739 | 23.89° C | 56% | 962.3 hPa | - | - | - | - |
| 1777643838 | 25.56° C | 54% | 962.4 hPa | - | - | - | - |
| 1777642937 | 26.67° C | 54% | 962.6 hPa | - | - | - | - |
| 1777641169 | 23.33° C | 58% | 962.9 hPa | - | - | - | - |
| 1777640268 | 22.78° C | 59% | 963 hPa | - | - | - | - |
| 1777639367 | 21.67° C | 60% | 963.1 hPa | - | - | - | - |
| 1777638467 | 20.56° C | 61% | 963.2 hPa | - | - | - | - |
| 1777637566 | 20.56° C | 61% | 963.2 hPa | - | - | - | - |
| 1777636665 | 19.44° C | 62% | 963.3 hPa | - | - | - | - |
| 1777635764 | 18.33° C | 62% | 963.3 hPa | - | - | - | - |
| 1777634863 | 18.33° C | 62% | 963.2 hPa | - | - | - | - |
| 1777633963 | 18.33° C | 61% | 963.1 hPa | - | - | - | - |
| 1777633062 | 19.44° C | 60% | 963 hPa | - | - | - | - |
| 1777632161 | 20° C | 59% | 962.8 hPa | - | - | - | - |
| 1777631260 | 21.11° C | 58% | 962.7 hPa | - | - | - | - |
* Rain since midnight (hover to see other rain measurements)
** Current wind speed in m/s (hover to see current wind gust speed)